TimeEDT,TemperatureF,Dew PointF,Humidity,Sea Level PressureIn,VisibilityMPH,Wind Direction,Wind SpeedMPH,Gust SpeedMPH,PrecipitationIn,Events,Conditions,WindDirDegrees,DateUTC
12:02 AM,78.8,71.6,78,30.01,10.0,North,5.8,-,N/A,,Scattered Clouds,10,2013-04-23 04:02:00
12:53 AM,78.1,71.1,79,30.01,10.0,ENE,5.8,-,N/A,,Partly Cloudy,60,2013-04-23 04:53:00
1:53 AM,77.0,70.0,79,30.00,10.0,ENE,4.6,-,N/A,,Clear,70,2013-04-23 05:53:00
2:53 AM,77.0,69.1,76,29.97,10.0,ENE,5.8,-,N/A,,Clear,60,2013-04-23 06:53:00
3:53 AM,77.0,70.0,79,29.96,10.0,NE,8.1,-,N/A,,Clear,40,2013-04-23 07:53:00
4:53 AM,75.9,69.1,79,29.96,10.0,NE,9.2,-,N/A,,Partly Cloudy,50,2013-04-23 08:53:00
5:53 AM,75.2,69.8,83,29.97,10.0,NE,8.1,-,N/A,,Clear,40,2013-04-23 09:53:00
6:53 AM,75.9,68.0,76,29.98,10.0,NNE,8.1,-,N/A,,Partly Cloudy,30,2013-04-23 10:53:00
7:30 AM,75.2,69.8,83,30.00,10.0,NE,9.2,-,N/A,,Mostly Cloudy,40,2013-04-23 11:30:00
7:48 AM,77.0,69.8,78,30.00,10.0,NE,8.1,-,N/A,,Scattered Clouds,40,2013-04-23 11:48:00
7:53 AM,77.0,69.1,76,30.01,10.0,NE,8.1,-,N/A,,Scattered Clouds,40,2013-04-23 11:53:00
8:53 AM,79.0,68.0,69,30.02,10.0,ENE,9.2,-,N/A,,Clear,60,2013-04-23 12:53:00
9:53 AM,81.0,69.1,67,30.03,10.0,ENE,10.4,16.1,N/A,,Partly Cloudy,60,2013-04-23 13:53:00
10:53 AM,82.0,69.1,65,30.05,10.0,NE,12.7,18.4,N/A,,Partly Cloudy,50,2013-04-23 14:53:00
11:53 AM,82.0,69.1,65,30.05,10.0,NNE,11.5,-,N/A,,Clear,30,2013-04-23 15:53:00
12:53 PM,84.0,69.1,61,30.04,10.0,NE,10.4,-,N/A,,Clear,40,2013-04-23 16:53:00
1:53 PM,84.9,69.1,59,30.03,10.0,NNE,11.5,-,N/A,,Clear,20,2013-04-23 17:53:00
2:53 PM,84.9,69.1,59,30.01,10.0,NE,10.4,-,N/A,,Scattered Clouds,40,2013-04-23 18:53:00
3:53 PM,86.0,66.9,53,29.99,10.0,NE,10.4,-,N/A,,Partly Cloudy,40,2013-04-23 19:53:00
4:53 PM,86.0,68.0,55,29.99,10.0,NE,10.4,-,N/A,,Clear,40,2013-04-23 20:53:00
5:53 PM,84.9,70.0,61,29.98,10.0,NNE,9.2,-,N/A,,Partly Cloudy,20,2013-04-23 21:53:00
6:53 PM,82.0,70.0,67,29.99,10.0,ESE,13.8,-,N/A,,Mostly Cloudy,110,2013-04-23 22:53:00
7:50 PM,80.6,69.8,70,30.00,10.0,East,16.1,-,N/A,,Mostly Cloudy,100,2013-04-23 23:50:00
7:53 PM,81.0,69.1,67,30.00,10.0,East,16.1,-,N/A,,Overcast,100,2013-04-23 23:53:00
8:53 PM,81.0,69.1,67,30.02,10.0,East,17.3,24.2,N/A,,Overcast,90,2013-04-24 00:53:00
9:53 PM,80.1,66.9,64,30.04,10.0,ENE,12.7,21.9,N/A,,Overcast,70,2013-04-24 01:53:00
10:53 PM,80.1,66.0,62,30.06,10.0,ENE,11.5,21.9,N/A,,Overcast,60,2013-04-24 02:53:00
11:53 PM,79.0,66.0,64,30.06,10.0,ENE,15.0,23.0,N/A,,Overcast,70,2013-04-24 03:53:00